Regional Weather Roundup
Issued by NWS

Home | Current Version | Previous Version | Text Only | Print | Product List | Glossary Off
Versions: 1 2 3 4 5 6 7 8 9 10 11 12 13 14 15 16 17 18 19 20 21 22 23 24 25 26 27 28 29 30 31 32 33 34 35 36 37 38 39 40 41 42 43 44 45 46 47 48 49 50

000
ASUS43 KMPX 222201
RWRMN
WEATHER ROUNDUP FOR MINNESOTA
NATIONAL WEATHER SERVICE TWIN CITIES/CHANHASSEN MN
500 PM CDT FRI AUG 22 2014


NOTE: "FAIR" INDICATES FEW OR NO CLOUDS BELOW 12,000 FEET WITH NO
SIGNIFICANT WEATHER AND/OR OBSTRUCTIONS TO VISIBILITY. N/A MEANS
CURRENT SKY AND/OR WEATHER CONDITIONS ARE NOT AVAILABLE.

MNZ060>063-068>070-222300-
   Twin Cities Metro

CITY           SKY/WX    TMP DP  RH WIND       PRES   REMARKS
TWIN CITIES    CLOUDY    78  68  71 NW9       29.97R
ST PAUL        CLOUDY    77  68  73 N6        29.97R
CRYSTAL        CLOUDY    77  68  73 N6        29.96S
BLAINE         CLOUDY    75  72  88 N6        29.97S
LAKEVILLE      MOSUNNY   75  68  78 N5        29.97R
EDEN PRAIRIE   CLOUDY    77  70  79 NW6       29.96S
SOUTH ST PAUL  PTSUNNY   78  68  71 N7        29.96S
LAKE ELMO      CLOUDY    75  70  83 NW6       29.99R
$$
MNZ001>005-007-008-013>017-022>024-027-028-222300-
   Northwest Minnesota

CITY           SKY/WX    TMP DP  RH WIND       PRES   REMARKS
BEMIDJI        DRIZZLE   76  66  70 E6        29.99S
HALLOCK        CLOUDY    72  64  78 N12       30.04R
ROSEAU         PTSUNNY   70  63  78 NE5       30.03S
WARROAD        LGT RAIN  70  66  88 NE5       30.04R
THIEF RVR FALL CLOUDY    72  66  83 NW10      30.02R
CROOKSTON      CLOUDY    72  66  83 N10       30.03R
FOSSTON        CLOUDY    72  66  83 NW7       30.02R
DETROIT LAKES  PTSUNNY   73  66  78 NW12      30.04R
MOORHEAD       PTSUNNY   73  72  94 N9        30.02S
PARK RAPIDS    CLOUDY    74  68  81 N9        30.00R
MAHNOMEN       CLOUDY    71  67  87 NW8       30.02R
$$
MNZ006-009>011-018-025>026-222300-
   North Central Minnesota

CITY           SKY/WX    TMP DP  RH WIND       PRES   REMARKS
BAUDETTE       CLOUDY    72  67  84 N8        30.02R
FLAG ISLAND    LGT RAIN  70  63  78 CALM      30.03R
INTL FALLS     CLOUDY    73  65  75 NE7       30.02R
WASKISH        CLOUDY    75  70  83 CALM      30.01R
BIG FORK       PTSUNNY   70  63  78 SE3       30.02R
LONGVILLE      PTSUNNY   75  66  73 CALM      30.00R
GRAND RAPIDS   PTSUNNY   75  66  73 CALM      30.01R
CRANE LAKE     CLOUDY    70  64  83 CALM      30.03R
ORR            CLOUDY    73  64  73 CALM      29.99R
COOK           CLOUDY    73  66  78 CALM      30.02R
WALKER         DRIZZLE   74  67  77 CALM      30.00R
$$
MNZ012-019>021-037-222300-
   Northeast Minnesota

CITY           SKY/WX    TMP DP  RH WIND       PRES   REMARKS
DULUTH         CLOUDY    66  61  84 SE5       30.02R
ELY            CLOUDY    72  64  78 NE3       30.02S
HIBBING        CLOUDY    75  66  73 CALM      30.01R
EVELETH        CLOUDY    72  64  78 CALM      30.03R
DULUTH HARBOR  CLOUDY    63  61  94 NE6       30.02R
TWO HARBORS    CLOUDY    64  59  82 E7        30.00R
SILVER BAY     SUNNY     64  64 100 NE6       30.01R
GRAND MARAIS     N/A     69  61  75 N5        30.00F
G MARAIS ARPRT FOG       63  59  88 N6        30.06R VSB 3/4
$$
MNZ029>031-032-039>041-046>048-054>057-064-222300-
   West Central Minnesota

CITY           SKY/WX    TMP DP  RH WIND       PRES   REMARKS
FERGUS FALLS   CLOUDY    75  66  73 NW12      29.98S
WHEATON        PTSUNNY   75  68  78 NW6       30.00S
MORRIS         MOSUNNY   84  66  54 N3        29.97S
ALEXANDRIA     MOSUNNY   81  66  60 NW7       30.00S
ELBOW LAKE     FAIR      77  69  75 NW9       29.99S
WADENA         PTSUNNY   77  68  73 CALM      30.00R
GLENWOOD       MOSUNNY   82  68  61 CALM      30.00S
APPLETON       PTSUNNY   84  66  54 E3        29.97S
BENSON         SUNNY     82  64  54 CALM      29.97S
ORTONVILLE     MOSUNNY   82  64  54 CALM      29.97F
MADISON        SUNNY     82  72  69 NE3       29.97S
WILLMAR        FAIR      82  64  54 N5        29.98S
$$
MNZ033>034-036-042>043-049>051-058-059-222300-
   Central Minnesota

CITY           SKY/WX    TMP DP  RH WIND       PRES   REMARKS
ST CLOUD       CLOUDY    78  68  71 N8        29.99R
SAUK CENTRE    FAIR      80  69  68 NE6       29.99S
PAYNESVILLE    MOSUNNY   78  68  69 N7        29.99R
AITKIN         PTSUNNY   77  68  73 CALM      29.98F
PINE RIVER     PTSUNNY   77  66  69 CALM      30.03R
BRAINERD       PTSUNNY   77  66  68 CALM      30.00R
STAPLES        MOSUNNY   77  64  65 CALM      29.99S
LONG PRAIRIE   FAIR      77  66  69 CALM      30.00S
LITTLE FALLS   MOSUNNY   75  64  69 CALM      29.99F
LITCHFIELD     MOSUNNY   81  72  74 N5        29.99R
BUFFALO        CLOUDY    76  67  73 NW3       29.99R
MAPLE LAKE     CLOUDY    77  71  79 N3        30.00R
$$
MNZ037-044-045-052-053-222300-
   East Central Minnesota

CITY           SKY/WX    TMP DP  RH WIND       PRES   REMARKS
PRINCETON      CLOUDY    75  68  78 CALM      29.99S
MORA           PTSUNNY   70  64  83 CALM      30.01S
CAMBRIDGE      CLOUDY    75  64  69 NW5       29.97S
RUSH CITY      CLOUDY    73  67  81 N3        29.99S
MOOSE LAKE     CLOUDY    68  63  83 CALM      30.00R
HINCKLEY       CLOUDY    72  68  88 N6        30.00R
CLOQUET        CLOUDY    66  63  88 CALM      30.02R
MCGREGOR       CLOUDY    72  66  83 SE3       30.01S
$$
MNZ071>073-080-081-089-090-097-098-222300-
   Southwest Minnesota

CITY           SKY/WX    TMP DP  RH WIND       PRES   REMARKS
MONTEVIDEO     SUNNY     88  72  58 CALM      29.98S HX  94
GRANITE FALLS  MOSUNNY   82  69  65 NE3       29.98S
CANBY          SUNNY     83  67  58 N6        29.99R
MARSHALL       CLOUDY    82  66  57 NE8       29.97S
REDWOOD FALLS  MOSUNNY   86  69  56 NE7       29.96S HX  90
OLIVIA         SUNNY     82  64  54 CALM      29.97S
PIPESTONE      MOSUNNY   81  66  61 CALM      30.01R
WINDOM         MOSUNNY   81  70  69 NE6       29.99R
WORTHINGTON      N/A     81  68  65 E3        30.00S
JACKSON        MOSUNNY   82  68  61 NE7       29.99R
TRACY          MOSUNNY   83  69  61 NE3       29.99S
SLAYTON        MOSUNNY   82  67  60 CALM      30.01R
$$
MNZ065>067-074>077-082>085-091>093-222300-
   South Central Minnesota

CITY           SKY/WX    TMP DP  RH WIND       PRES   REMARKS
MANKATO        MOSUNNY   82  66  57 N3        29.96S
NEW ULM        MOSUNNY   82  72  69 NE7       29.97R
ST JAMES       MOSUNNY   90  70  51 CALM      29.98R HX  95
FAIRMONT       MOSUNNY   72  64  78 CALM      29.97S
GLENCOE        CLOUDY    81  66  61 CALM      29.97R
FARIBAULT      PTSUNNY   84  64  51 NW3       29.96S
OWATONNA       SUNNY     82  68  61 W3        29.96S
WASECA         PTSUNNY   81  64  57 N5        29.98R
ALBERT LEA     SUNNY     82  70  65 N5        29.96S
$$
MNZ078>079-086>088-094>096-222300-
   Southeast Minnesota

CITY           SKY/WX    TMP DP  RH WIND       PRES   REMARKS
ROCHESTER      SUNNY     83  70  64 NW3       29.97R
RED WING       MOSUNNY   82  70  65 N6        29.94R
STANTON        MOSUNNY   81  69  67 N7        29.95R
DODGE CENTER   SUNNY     81  70  69 N5        29.97S
WINONA         MOSUNNY   82  70  65 NW7       29.92S
AUSTIN         SUNNY     82  72  69 N3        29.95S
PRESTON        MOSUNNY   83  76  80 N5        29.96S HX  92
$$
ABBREVIATIONS USED IN REMARKS
   TC - TEMPERATURES IN CELSIUS
  WCI - WIND CHILL INDEX
   HX - HEAT INDEX
  VSB - VISIBILITY
$$


USA.gov is the U.S. government's official web portal to all federal, state and local government web resources and services.